Probability
0 0 0 0 0 0 0 0 0 0 0 0 0 0 0 0 0 0 0 0 0 0 1 3 7 10 10 9 7 4 5 16 35 48 52 46 35 25 16 9 4 1 0 0
0 0 0 0 0 0 0 0 0 0 0 0 0 0 0 0 0 0 0 0 0 1 2 6 12 18 20 19 13 8 11 24 44 61 65 60 51 38 27 17 9 3 1 1
0 0 0 0 0 0 0 0 0 0 0 0 0 0 0 0 0 0 0 0 0 1 3 7 15 24 33 35 27 18 20 36 59 76 79 75 69 56 42 30 18 7 3 2
0 0 0 0 0 0 0 0 0 0 0 0 0 0 0 0 0 0 0 0 0 0 2 5 12 22 34 44 41 31 31 46 68 83 84 78 69 57 46 37 25 11 5 3
0 0 0 0 0 0 0 0 0 0 0 0 0 0 0 0 0 0 0 0 0 0 1 4 9 16 26 40 48 46 44 54 72 82 80 69 57 45 39 35 25 15 9 5
0 0 0 0 0 0 0 0 0 0 0 0 0 0 0 0 0 0 0 0 0 0 1 2 5 11 19 31 44 51 53 58 66 70 64 53 42 34 31 29 22 16 12 8
0 0 0 0 0 0 0 0 0 0 0 0 0 0 0 1 0 0 0 0 0 0 0 1 3 6 12 20 31 40 46 48 49 49 43 34 28 28 27 22 16 13 10 8
0 0 0 0 0 0 0 0 0 0 0 0 0 0 0 0 0 0 0 0 0 0 0 0 1 3 4 8 15 22 28 29 30 30 26 19 17 21 21 15 10 7 5 4
0 0 0 0 0 0 0 0 0 0 0 0 0 0 0 0 0 0 0 0 0 0 0 0 0 1 1 1 4 8 12 14 15 18 16 13 11 12 12 9 5 2 1 1
0 0 0 0 0 0 0 0 0 0 0 0 0 0 0 0 0 0 0 0 0 0 0 0 0 0 0 0 0 1 3 5 8 10 11 9 6 5 5 4 2 0 0 0
0 0 0 0 0 0 0 0 0 0 0 0 0 0 0 0 0 0 0 0 0 0 0 0 0 0 0 0 0 0 1 2 4 5 5 5 4 2 2 1 0 0 0 0
0 0 0 0 0 0 0 0 0 0 0 0 0 0 0 0 0 0 0 0 0 0 0 0 0 0 0 0 0 0 0 1 2 2 2 2 2 2 1 1 1 1 0 0
0 0 0 0 0 0 0 0 0 0 0 0 0 0 0 0 0 0 0 0 0 0 0 0 0 0 0 0 1 0 0 0 1 1 1 1 1 1 1 1 1 1 0 0
0 0 0 0 0 0 0 0 0 0 0 0 0 0 0 0 0 0 0 0 0 0 0 0 0 0 0 0 0 0 0 0 0 0 0 0 0 0 0 1 1 0 0 0
0 0 0 0 0 0 0 0 0 0 0 0 0 0 0 0 0 0 0 0 0 0 0 0 0 0 0 0 0 0 0 0 0 0 0 0 0 0 1 1 1 1 1 1
0 0 0 0 0 0 0 0 0 0 0 0 0 0 0 0 0 0 0 0 0 0 0 0 0 0 0 0 0 0 0 0 0 0 0 0 0 0 1 2 2 2 2 2
0 0 0 0 0 0 0 0 0 0 0 0 0 0 0 0 0 0 0 0 0 0 0 0 0 0 0 0 0 0 0 0 0 0 0 0 0 0 1 1 1 1 2 2
0 0 0 0 0 0 0 0 0 0 0 0 0 0 0 0 0 0 0 0 0 0 0 0 0 0 0 0 0 0 0 0 0 0 0 0 0 0 0 0 0 0 1 1
0 0 0 0 0 0 0 0 0 0 0 0 0 0 0 0 0 0 0 0 0 0 0 0 0 0 0 0 0 0 0 0 0 0 0 0 0 0 0 0 0 0 0 0
0 0 0 0 0 0 0 0 0 0 0 0 0 0 0 0 0 0 0 0 0 0 0 0 0 0 0 0 0 0 0 0 0 0 0 0 0 0 0 0 0 0 0 0
0 0 0 0 0 0 0 0 0 0 0 0 0 0 0 0 0 0 0 0 0 0 0 0 0 0 0 0 0 0 0 0 0 0 0 0 0 0 0 0 0 0 0 0
0 0 0 0 0 0 0 0 0 0 0 0 0 0 0 0 0 0 0 0 0 0 0 0 0 0 0 0 0 0 0 0 0 0 0 0 0 0 0 0 0 0 0 0
0 0 0 0 0 0 0 0 0 0 0 0 0 0 0 0 0 0 0 0 0 0 0 0 0 0 0 0 0 0 0 0 0 0 0 0 0 0 0 0 0 0 0 0
0 0 0 0 0 0 0 0 0 0 0 0 0 0 0 0 0 0 0 0 0 0 0 0 0 0 0 0 0 0 0 0 0 0 0 0 0 0 0 0 0 0 0 0
0 0 0 0 0 0 0 0 0 0 0 0 0 0 0 0 0 0 0 0 0 0 0 0 0 0 0 0 0 0 0 0 0 0 0 0 0 0 0 0 0 0 0 0
0 0 0 0 0 0 0 0 0 0 0 0 0 0 0 0 0 0 0 0 0 0 0 0 0 0 0 0 0 0 0 0 0 0 0 0 0 0 0 0 0 0 0 0
Wind_Speed
1 0 4 5 4 5 5 6 6 3 3 3 1 1 4 7 9 10 11 11 12 12 11 10 10 9 9 11 13 14 14 14 11 9 9 8 8 7 6 6 8 9 10 10
3 6 7 4 3 3 5 7 6 2 1 4 3 1 4 6 8 10 11 12 14 14 14 13 12 10 9 10 12 14 14 14 13 9 8 6 6 5 5 5 6 8 9 9
7 8 6 4 7 6 4 6 7 8 5 5 6 6 7 4 5 9 11 12 13 14 15 15 14 13 11 10 10 10 12 12 11 11 7 5 5 3 3 4 4 6 8 9
8 8 6 7 9 9 5 7 8 9 10 8 6 9 5 2 2 10 13 14 15 15 15 15 15 14 13 11 9 8 9 9 10 11 9 9 5 4 2 0 2 4 6 8
7 9 10 10 9 9 8 10 10 10 11 12 10 10 3 3 6 12 14 15 15 15 15 15 14 13 12 11 8 4 3 5 7 10 10 8 6 4 3 1 2 3 4 6
9 7 9 10 6 6 9 10 10 10 10 13 10 10 2 6 11 14 15 16 16 15 15 14 13 12 11 10 8 5 4 6 8 9 9 10 9 6 4 1 2 3 3 4
5 9 8 10 9 6 11 10 6 6 7 6 2 3 7 9 11 13 15 16 16 15 14 14 13 11 10 10 9 7 7 8 9 10 9 9 9 7 4 2 3 4 3 3
5 5 10 11 10 9 9 9 7 7 6 4 2 1 8 9 11 13 13 14 15 15 14 13 11 9 8 8 8 7 8 8 8 8 8 7 7 4 3 3 4 4 3 3
7 5 6 8 9 10 9 7 6 8 8 7 1 4 4 13 16 17 17 17 17 16 14 12 10 8 7 7 8 7 7 7 6 6 6 5 5 4 4 4 4 3 4 3
6 2 6 5 4 10 8 8 5 5 5 4 1 5 8 17 18 18 18 18 18 17 13 11 9 6 6 6 6 6 5 5 4 4 3 3 2 2 2 3 4 4 5 4
5 3 4 4 9 12 10 8 6 5 3 4 2 5 8 12 14 15 16 17 16 15 12 10 9 8 7 6 6 6 6 5 4 3 2 2 2 2 2 3 3 4 4 5
4 4 3 5 5 6 7 8 7 5 4 4 2 4 8 11 11 13 15 15 15 14 13 11 10 10 9 9 8 7 6 5 4 3 2 2 2 3 3 3 3 3 3 3
3 4 1 5 3 7 7 9 6 3 2 3 2 3 7 11 12 14 14 14 14 14 14 13 12 12 11 11 9 8 7 6 4 3 3 3 2 2 1 2 2 2 2 3
2 6 7 6 5 5 6 9 9 5 3 3 4 4 8 12 13 13 13 12 12 12 12 13 12 12 12 11 11 10 9 8 6 5 5 5 4 3 2 2 1 0 1 2
1 5 7 7 4 4 7 9 9 9 6 4 4 5 7 10 11 10 10 11 11 12 13 13 12 12 12 12 11 10 10 9 8 7 7 6 5 4 3 3 2 2 2 3
1 5 6 5 2 2 5 8 6 6 5 5 4 4 6 8 7 8 10 10 11 12 13 12 12 12 11 11 11 10 10 10 9 9 8 7 6 6 5 4 4 3 2 2
2 4 3 3 3 4 2 4 4 3 4 4 5 5 9 8 9 10 11 11 11 11 11 11 11 10 10 10 10 10 10 9 9 9 9 8 7 7 6 5 5 4 3 2
2 3 1 2 4 0 4 1 1 1 1 2 3 6 7 8 6 5 9 11 11 11 10 10 9 9 9 8 8 8 8 9 9 9 9 8 8 7 7 6 6 5 4 3
1 2 2 2 1 3 4 4 3 3 1 1 3 5 7 7 3 5 11 12 11 10 9 8 8 8 8 8 8 7 8 9 9 9 9 8 8 8 8 8 7 6 5 5
2 3 3 4 3 2 4 6 3 4 3 2 2 5 7 8 3 8 13 12 11 10 8 8 7 7 7 7 7 7 8 9 9 8 8 8 8 8 8 8 7 6 5 5
5 4 4 4 3 1 6 7 5 4 4 3 1 4 6 7 7 9 11 11 10 9 8 8 7 6 6 6 6 7 8 8 7 7 7 7 8 8 8 7 7 6 6 6
4 4 5 4 4 3 11 9 6 2 5 2 1 3 5 7 7 8 10 10 9 9 9 8 7 6 5 5 5 6 6 5 5 5 6 7 7 7 6 7 7 7 7 7
6 4 2 4 1 5 9 5 2 1 2 1 1 3 5 6 7 9 9 9 9 9 8 7 7 6 4 3 4 5 4 3 4 4 5 6 6 6 6 7 7 7 7 6
5 4 5 6 6 6 8 7 5 4 3 1 2 4 5 6 8 9 9 9 9 9 8 7 7 6 5 4 3 3 2 2 2 4 4 5 5 6 6 5 6 6 6 6
5 7 6 7 4 6 9 10 8 6 4 3 3 3 4 5 7 8 8 9 9 8 8 7 7 7 6 5 3 2 1 1 2 3 4 4 5 5 5 5 5 6 7 7
8 9 7 5 7 7 8 12 11 8 6 4 3 2 2 4 6 7 8 8 8 9 8 8 8 8 7 6 4 1 1 2 2 3 4 3 3 3 3 3 5 5 5 7
Wind_Direction
68 360 19 7 355 326 308 286 281 316 12 305 293 53 65 53 42 32 24 16 11 3 356 350 338 318 289 264 248 237 229 216 205 196 198 196 201 204 208 215 219 219 225 225
177 52 20 16 7 300 288 282 283 280 9 295 272 239 111 71 50 32 20 12 6 357 354 353 345 336 316 287 259 243 228 217 205 196 192 193 191 198 203 209 222 226 229 228
63 36 20 27 20 333 312 321 315 303 295 244 259 227 169 120 64 35 22 12 5 358 351 349 344 340 330 311 279 252 234 218 200 185 176 158 154 156 176 203 217 230 233 233
65 36 28 33 27 348 321 352 313 291 274 262 251 269 173 112 52 21 11 5 0 356 350 348 345 343 336 326 308 266 236 214 188 172 168 163 161 154 137 212 236 244 240 237
69 36 32 29 16 351 338 319 294 280 269 267 244 257 174 69 13 3 0 357 355 353 349 347 347 346 343 341 335 311 218 182 159 158 157 147 128 113 94 39 294 258 243 236
81 58 35 10 357 2 328 298 266 249 254 252 251 250 116 40 3 352 353 353 352 350 348 347 348 353 357 1 7 20 88 116 128 133 135 131 122 113 110 135 252 252 239 233
105 67 40 6 352 2 350 330 287 251 238 256 284 249 72 35 10 357 350 350 350 349 348 347 349 356 3 15 29 50 80 99 114 120 118 120 120 125 138 187 231 230 223 221
1 52 33 21 11 342 355 346 330 304 298 309 304 91 85 30 12 1 356 353 349 349 350 350 351 358 10 25 32 46 75 90 101 111 116 118 121 127 146 197 217 216 216 208
4 52 52 33 23 5 348 358 336 295 290 277 260 97 80 10 5 0 358 355 352 350 350 352 359 11 17 24 30 37 62 82 94 101 107 118 132 146 167 189 199 197 191 170
351 18 46 20 6 33 9 342 317 305 306 292 354 52 9 356 352 350 352 351 348 348 352 359 5 14 23 26 23 29 45 68 75 85 98 107 121 147 161 182 199 187 167 155
347 358 70 55 29 7 9 6 343 304 306 319 344 58 12 353 347 347 349 349 349 352 359 10 13 22 31 31 29 30 34 44 46 43 63 94 118 145 163 177 180 171 165 168
2 333 72 86 77 23 19 3 343 337 358 358 344 44 9 355 352 354 353 352 354 360 10 22 26 26 28 26 23 26 28 36 37 47 71 97 129 154 164 160 155 162 155 167
6 330 248 150 130 30 16 2 356 327 328 9 14 22 0 359 2 359 357 357 1 12 20 25 27 28 27 25 25 28 33 40 43 45 61 67 70 78 98 124 134 156 161 171
325 41 37 47 37 1 4 15 24 24 29 41 34 8 358 356 353 351 355 359 4 13 22 26 26 27 25 24 26 30 36 38 44 49 53 52 50 39 25 41 58 259 228 218
316 88 91 95 92 56 42 34 40 48 41 44 30 20 357 342 338 343 352 -0 11 18 23 26 26 27 26 27 28 31 33 36 40 47 46 40 39 35 29 28 20 356 317 279
49 123 135 128 128 58 49 38 41 43 36 42 44 38 342 329 340 359 9 11 17 19 20 21 25 27 28 26 27 31 34 36 41 45 42 37 38 41 37 30 24 22 347 307
143 170 192 130 160 224 74 27 23 48 33 9 17 350 333 345 2 8 9 10 13 12 14 16 18 22 25 27 26 31 35 39 45 47 44 37 38 40 36 33 32 22 11 358
170 173 199 161 194 194 89 108 299 319 22 3 339 334 336 334 335 13 16 7 5 4 4 7 8 14 17 25 30 35 41 43 45 45 44 38 34 37 37 36 32 23 21 20
320 219 207 224 191 136 167 192 222 255 138 14 336 345 347 330 239 73 25 7 358 354 351 352 353 1 12 21 21 29 42 45 44 39 36 33 33 35 34 33 26 19 23 31
123 231 233 220 238 204 143 141 161 242 195 127 339 351 352 345 23 29 1 353 353 351 350 347 347 0 14 17 13 27 39 42 41 36 36 37 36 36 35 31 26 24 27 30
198 199 221 228 243 164 133 143 178 228 93 103 0 350 351 1 358 339 339 348 351 349 350 347 349 360 6 5 9 30 36 38 34 34 39 39 37 39 34 32 30 28 32 36
234 215 210 219 230 179 147 166 206 57 89 120 350 348 344 338 335 340 343 347 350 352 353 350 345 350 356 359 4 35 36 33 37 40 43 43 40 36 34 37 34 32 31 37
228 242 258 237 344 84 171 185 159 145 168 163 327 341 332 328 337 342 342 347 351 351 350 345 337 334 346 1 355 20 37 28 36 44 46 44 47 46 37 35 35 34 31 30
199 206 236 243 227 199 197 201 198 204 214 240 299 315 317 325 334 339 343 346 349 349 347 340 333 333 342 349 344 357 16 13 20 37 39 44 42 49 49 41 36 36 29 27
208 188 218 236 208 192 208 208 201 198 212 236 262 289 311 323 332 339 338 344 344 342 342 337 331 328 328 328 320 330 315 318 9 34 41 48 53 51 54 62 42 36 45 26
196 195 201 219 190 194 190 191 192 195 206 223 250 275 311 323 330 333 336 340 339 339 338 335 333 329 327 324 312 298 230 281 349 34 38 40 53 59 54 73 98 74 50 45